Location: Newark
(49.2191°N, 12.6671°E)
Time: 18:03:23
(UTC+00:00)

Transit 4A - Pass Details

Date: 24 January 2020
Orbit: 872 x 973 km, 66.8° (Epoch: 22 February)

Event Time Altitude Azimuth Distance (km) Brightness Sun altitude
Rises 14:53:52 0° 321° (NW) 3,474 10.9 6.9°
Reaches altitude 10° 14:56:24 10° 317° (NW) 2,530 10.3 6.6°
Maximum altitude 15:02:03 54° 242° (WSW) 1,055 9.0 5.9°
Drops below altitude 10° 15:07:43 10° 167° (SSE) 2,534 10.6 5.2°
Sets 15:10:16 0° 162° (SSE) 3,480 11.2 4.8°
